Wind_Speed
28 28 29 29 28 27 27 29 30 29 28 27 26 26 26 26 26 27 27 27 26 26 26 25 24 23 22 22 22 22 22 22 22 23 22 21 21 21 20 19 18 17 16 15 14 14 13 13 13 13 13 13 12 11 10 9 9 10 10 10 9 8 7
29 29 29 29 29 27 27 29 30 30 30 28 27 26 26 26 26 27 28 27 26 26 27 26 25 24 22 22 22 23 22 22 22 22 23 22 22 22 22 21 20 19 17 16 15 16 16 16 15 14 15 14 13 13 12 11 10 10 10 10 10 9 8
30 28 27 27 29 28 27 28 29 30 30 30 29 28 27 25 25 26 28 28 27 26 27 27 26 24 23 22 23 23 22 23 22 22 22 22 22 23 23 23 22 21 20 19 18 17 18 17 16 16 15 15 14 14 13 12 12 11 11 11 11 10 10
35 32 28 26 27 28 29 30 29 29 30 30 29 28 26 25 24 25 27 27 27 27 27 28 27 26 24 24 24 23 23 23 23 22 22 21 22 23 24 24 23 22 21 21 20 19 19 19 18 17 16 15 15 15 14 13 13 13 12 12 11 11 11
36 36 34 30 28 29 31 31 30 29 29 29 28 27 26 25 25 25 26 27 28 27 27 26 27 27 26 25 25 24 23 22 22 22 22 22 22 23 23 24 24 23 22 21 21 21 21 20 19 18 17 16 16 15 15 14 14 14 14 13 13 13 13
32 34 34 31 27 27 28 29 29 29 28 28 28 26 26 26 26 25 25 26 27 28 28 27 28 28 28 27 26 25 25 24 23 22 22 23 23 24 22 21 23 24 23 23 22 22 21 21 20 19 17 17 16 16 15 15 14 14 14 14 14 14 14
30 30 30 28 25 23 24 26 28 29 28 28 28 28 27 27 26 25 25 26 27 28 29 29 29 29 29 28 27 26 26 26 25 24 23 23 24 25 23 22 22 23 25 24 23 22 22 21 21 20 19 19 18 17 16 15 15 15 15 15 15 15 16
27 27 27 28 26 23 23 23 25 28 29 29 29 28 28 27 26 26 26 25 26 28 30 30 29 29 29 29 28 27 27 26 26 25 24 24 25 25 25 24 22 22 25 26 25 25 24 22 22 21 21 21 20 19 18 17 16 16 16 16 16 16 16
24 26 27 31 33 30 28 25 25 27 29 29 29 28 26 26 26 26 25 25 26 28 29 30 30 29 30 30 30 28 27 27 27 27 26 26 25 25 25 25 23 23 24 25 26 26 26 25 24 23 23 23 22 22 21 20 19 18 17 17 17 17 17
23 26 27 31 35 34 33 32 31 31 31 30 29 27 26 25 24 24 25 24 25 27 28 29 29 30 31 31 31 30 29 28 28 28 28 28 27 26 25 25 24 24 24 24 25 27 27 27 26 26 25 25 24 24 23 22 21 20 19 18 18 18 18
19 25 27 30 34 34 33 34 36 36 36 34 31 28 26 24 24 24 24 24 24 25 26 27 28 30 31 31 32 32 31 30 29 29 29 28 28 27 26 25 25 25 25 25 25 26 26 27 27 27 27 26 25 25 24 23 23 22 22 21 20 20 19
14 22 26 28 33 35 33 33 35 37 39 40 38 35 32 28 25 24 24 23 24 24 25 25 27 29 31 32 32 32 32 31 31 30 29 29 28 27 26 27 27 27 26 26 26 26 26 27 27 27 27 27 26 26 25 24 24 24 23 23 22 22 22
5 16 24 28 31 34 34 33 34 36 38 40 40 41 40 37 32 29 27 25 24 25 25 25 25 27 31 33 33 33 33 32 32 31 30 29 28 28 28 28 28 28 27 27 27 27 27 28 28 28 28 27 27 26 26 25 25 25 24 24 24 24 24
2 9 19 25 30 33 33 32 33 35 37 38 39 40 41 41 40 38 34 30 28 27 26 26 26 26 29 32 34 34 33 32 32 32 31 30 30 29 29 29 29 29 28 28 28 28 28 28 28 28 28 28 28 27 27 27 27 26 26 26 26 26 26
7 4 11 16 22 28 31 32 32 34 36 38 39 40 40 41 41 42 40 35 33 32 30 29 28 27 28 31 34 35 34 33 33 32 32 31 31 30 29 29 29 29 29 30 30 29 29 29 29 29 30 29 29 28 28 28 28 28 27 27 28 28 27
9 3 6 10 14 20 28 31 32 33 35 37 38 39 40 41 42 43 42 39 38 37 35 33 31 29 29 30 32 32 33 34 34 33 33 32 31 31 30 30 30 30 31 31 31 30 30 30 31 31 31 31 30 30 30 29 29 28 27 27 28 29 29
9 7 2 6 9 14 22 28 31 33 34 36 38 39 39 40 41 41 41 41 40 39 38 36 33 31 30 29 29 29 30 32 34 34 34 33 32 32 31 31 31 31 31 31 31 31 31 31 32 32 31 31 31 31 31 30 29 28 27 26 27 28 29
9 8 6 2 2 8 16 24 28 31 33 35 37 38 39 39 40 40 40 40 40 39 39 37 34 31 30 29 28 28 28 30 32 34 34 33 32 32 31 32 32 32 32 32 32 32 32 32 32 32 32 32 32 32 31 30 28 28 27 26 26 27 28
14 11 10 8 6 4 8 17 24 27 31 34 34 36 39 40 40 39 39 39 38 38 38 37 34 32 29 29 29 29 29 30 31 33 34 34 33 32 32 33 33 33 33 33 33 33 33 32 32 31 32 32 32 32 31 30 29 28 27 26 26 26 28
21 19 16 14 12 9 7 7 15 21 26 30 32 34 37 40 41 41 39 39 38 37 37 36 36 34 31 30 30 30 30 31 30 31 32 33 33 34 34 34 34 33 33 34 34 34 33 32 32 31 31 31 31 31 31 30 29 28 27 26 26 26 27
24 26 24 22 18 13 8 7 7 12 20 25 28 33 35 37 40 42 41 40 39 38 38 37 37 36 34 32 32 31 31 31 31 31 31 32 33 34 34 34 33 33 33 33 34 34 34 33 33 32 31 31 30 31 30 29 28 27 27 26 25 25 27
21 26 29 28 24 17 11 8 8 9 11 14 19 28 33 34 37 41 42 42 41 40 39 38 37 36 35 35 34 33 32 32 31 31 30 30 31 32 32 32 32 32 32 32 33 33 34 34 33 33 32 31 31 31 30 28 26 26 26 26 25 26 27
19 23 27 30 29 24 18 13 10 10 9 9 11 18 25 28 31 37 42 43 42 41 40 38 37 36 35 35 35 35 33 32 32 32 31 30 30 30 30 30 31 31 31 31 32 33 33 33 32 32 32 32 31 31 30 27 26 26 26 25 26 27 28
18 21 23 27 32 33 27 21 18 16 12 9 10 11 14 19 22 27 36 42 43 42 40 39 37 36 35 35 35 35 34 33 33 32 32 32 31 31 31 30 30 30 30 30 31 32 33 33 33 33 32 31 30 29 29 28 27 26 26 25 27 28 29
20 21 22 24 30 36 35 30 26 24 18 13 11 12 12 13 12 16 27 36 41 43 40 38 38 37 36 35 34 34 34 33 33 33 33 33 33 33 32 32 31 31 31 31 32 32 33 34 34 34 31 30 29 28 28 27 27 27 27 26 27 29 29
25 24 24 24 25 30 37 37 31 28 26 21 16 13 12 12 10 14 22 30 36 40 40 39 39 38 37 36 35 35 34 33 32 33 33 34 34 34 34 34 33 33 33 32 32 32 33 34 35 35 33 31 29 28 28 27 26 27 27 26 27 29 30
31 29 28 27 25 26 33 37 35 32 31 29 23 18 14 12 12 14 19 25 32 36 37 39 39 38 38 38 36 35 35 33 32 33 33 33 34 35 36 36 36 35 35 33 33 33 34 34 35 36 35 34 32 30 28 27 26 26 26 26 27 28 30
34 34 33 31 29 27 29 33 35 36 36 34 31 26 22 16 12 12 14 18 26 32 34 35 37 38 38 38 37 36 36 36 35 35 34 33 33 34 35 37 37 37 36 35 34 34 35 35 36 36 37 36 34 32 30 28 27 27 26 26 27 28 30
34 35 36 35 33 32 31 30 32 36 39 39 37 33 29 24 18 13 12 14 21 29 34 35 37 38 39 39 38 37 37 37 37 37 35 34 34 34 34 35 36 37 37 37 36 36 37 37 37 37 38 37 35 33 31 30 29 28 27 27 27 28 29
29 33 35 36 35 36 35 34 33 35 39 42 42 38 33 29 24 19 15 15 17 24 31 35 38 40 40 40 39 38 38 39 39 39 38 36 35 34 33 32 33 34 36 37 38 38 38 38 38 39 38 37 36 34 32 31 30 29 29 29 28 28 28
25 29 32 34 34 35 37 37 37 37 38 40 44 43 37 33 30 25 20 18 17 19 25 32 36 39 41 42 42 41 41 41 40 40 39 38 36 35 33 32 32 33 35 37 39 40 40 40 39 39 39 38 37 35 33 32 30 30 30 30 30 30 29
25 27 30 32 33 34 36 37 38 40 39 38 42 45 41 36 34 31 26 23 20 19 21 26 30 34 38 42 44 44 43 42 42 41 40 39 37 36 35 34 34 35 36 38 39 40 41 41 41 41 41 40 39 37 36 34 32 31 31 31 31 31 31
28 27 29 31 32 33 35 36 37 38 39 37 38 44 45 40 38 36 33 29 25 22 22 24 26 29 33 38 42 43 42 42 41 40 40 39 38 37 37 37 37 36 37 38 39 39 40 41 42 42 41 41 40 39 39 37 36 34 32 31 30 30 31
33 30 29 30 31 32 34 36 36 36 37 36 35 40 45 45 42 41 38 35 30 26 24 25 26 27 29 34 38 41 41 41 40 39 39 39 39 38 38 39 39 39 38 39 39 39 39 40 42 42 42 41 40 40 40 40 38 36 34 33 32 31 30
36 33 30 30 32 33 33 34 36 36 36 35 34 36 41 45 46 44 42 40 37 32 27 26 27 28 29 32 36 39 40 40 40 39 38 38 39 39 40 41 41 41 40 39 40 40 40 40 41 42 41 40 40 39 40 40 39 37 36 35 34 31 29
39 36 32 31 33 34 33 33 35 35 35 34 34 35 38 43 46 46 45 44 42 37 31 28 28 28 29 32 35 39 40 40 39 37 36 36 36 37 39 40 41 41 40 39 40 41 41 40 41 40 39 39 39 39 40 40 39 38 38 37 33 29 28
42 39 35 33 34 35 34 33 34 35 34 34 34 35 36 40 45 47 46 45 45 42 37 33 31 30 29 31 34 38 40 41 39 37 36 36 35 36 36 37 38 39 39 39 39 40 40 40 40 39 38 38 38 38 39 39 39 39 39 37 34 31 30
44 42 38 35 35 36 35 34 34 35 34 34 34 35 35 38 43 47 47 46 46 47 45 40 36 33 29 30 32 36 40 42 41 39 38 36 36 36 35 35 36 37 37 37 37 37 38 38 38 37 37 38 36 35 36 36 36 36 37 37 35 33 31
Wind_Direction
248 247 243 240 237 233 231 232 233 232 229 227 226 222 218 213 208 208 211 212 211 208 210 214 217 219 219 218 216 214 211 210 211 212 213 210 210 212 212 212 213 216 217 216 217 218 220 223 223 221 220 218 216 212 204 195 188 184 185 185 185 183 181
250 250 248 245 243 240 236 234 234 234 233 230 228 226 223 217 210 209 210 213 212 210 211 214 218 219 219 219 219 217 214 211 210 211 213 212 210 211 213 214 214 215 216 216 217 218 221 223 224 225 224 221 219 217 212 205 197 193 193 191 190 191 191
254 256 254 249 247 245 242 238 236 235 235 234 231 229 226 222 216 211 211 213 214 212 211 213 218 220 220 220 220 220 217 214 211 211 212 212 211 212 215 217 218 216 215 215 216 218 220 223 225 227 228 225 222 220 216 212 206 202 202 199 196 196 198
255 258 260 257 253 249 246 244 240 238 237 236 235 233 230 227 222 217 214 214 216 216 213 213 216 219 220 221 221 221 219 217 214 212 212 213 214 215 216 218 220 220 218 216 216 219 221 223 224 227 230 230 229 225 220 216 212 209 209 208 204 202 203
253 256 259 258 254 250 246 245 244 241 239 238 237 236 234 231 227 222 217 215 216 219 218 216 217 220 221 221 221 222 221 219 217 215 214 214 215 218 219 218 219 222 222 220 219 219 222 225 226 227 230 233 234 232 228 223 217 214 213 212 211 211 210
251 252 254 254 251 249 247 246 244 244 243 241 239 238 236 233 230 225 220 217 215 217 219 218 218 220 222 223 222 221 221 219 217 215 215 215 216 220 222 220 219 220 222 223 223 222 223 225 227 229 231 234 236 237 235 232 226 220 218 216 215 216 217
250 247 249 251 249 246 246 246 245 244 244 243 242 241 238 235 231 226 222 219 216 216 218 219 218 218 221 224 223 222 222 221 218 215 214 215 217 220 222 223 220 219 220 223 225 227 228 228 228 230 232 235 237 239 239 238 235 230 226 222 220 220 221
248 243 241 248 252 247 244 244 243 243 244 243 242 240 238 235 232 229 224 220 217 217 219 220 220 220 221 223 224 223 222 223 222 219 216 215 216 218 221 223 222 220 220 223 225 229 232 233 233 233 234 236 239 241 242 241 240 238 235 229 225 224 224
242 238 235 244 253 253 249 245 242 241 243 244 244 241 238 235 232 229 226 222 220 219 219 220 222 222 223 224 225 224 223 223 224 223 221 217 215 216 219 222 223 223 222 223 225 228 232 235 236 237 238 239 240 242 243 243 242 241 241 236 231 229 228
236 233 234 241 247 248 247 245 242 240 240 243 244 243 239 234 231 229 226 224 223 221 221 221 222 223 225 225 225 225 224 223 223 225 224 222 218 215 216 219 223 225 225 224 225 227 230 233 235 236 238 239 239 241 243 244 245 245 244 242 239 235 234
235 230 231 237 242 242 241 241 239 238 238 240 243 245 242 236 231 228 226 224 223 222 222 221 221 223 225 226 225 225 224 223 223 224 225 225 223 219 216 217 221 224 225 225 225 226 228 230 233 234 236 237 238 239 241 243 245 247 247 247 245 242 240
235 226 223 230 239 241 241 240 238 236 235 236 239 242 245 243 238 232 228 226 224 223 223 222 221 222 225 226 225 225 225 225 224 224 225 226 226 224 221 220 221 223 224 225 226 226 227 229 231 232 233 235 237 238 239 240 243 245 247 248 247 245 243
240 224 219 222 232 239 241 241 238 236 234 233 234 236 241 244 244 242 238 233 230 227 225 225 223 223 225 227 227 227 227 227 227 226 226 226 227 226 225 223 223 224 224 225 226 227 228 229 231 232 233 234 236 238 239 240 242 243 245 247 247 246 245
65 216 216 221 228 233 238 238 238 237 234 232 232 233 236 240 243 245 245 242 241 238 233 230 229 226 225 227 229 230 230 230 230 229 229 228 228 227 227 226 226 226 226 227 228 228 229 231 233 235 236 237 237 239 240 242 242 243 244 245 247 247 246
61 179 206 218 226 229 231 233 235 237 236 234 233 233 234 237 239 242 243 243 244 243 241 238 236 232 227 226 228 231 233 233 232 232 231 231 230 229 229 228 227 228 228 229 229 229 230 232 234 237 238 239 240 240 242 243 243 243 243 244 246 248 248
31 51 179 199 213 221 226 228 230 234 237 236 234 234 236 237 238 240 241 241 242 243 243 242 240 236 231 226 226 229 232 234 234 234 234 233 234 233 232 231 230 230 230 231 231 231 231 232 234 236 238 239 241 242 243 244 243 243 243 243 244 246 249
349 5 61 167 184 203 217 224 227 230 234 237 237 237 237 238 240 241 242 243 243 244 244 242 240 237 232 227 226 227 229 231 234 236 236 236 236 236 235 234 234 233 232 233 233 233 233 233 234 236 238 239 241 242 244 245 245 245 245 244 244 245 248
301 324 338 358 166 193 206 216 223 227 230 233 236 238 239 240 241 243 244 245 245 245 245 243 239 236 232 230 229 227 226 228 232 235 237 237 237 238 238 238 237 237 236 236 235 235 235 236 236 236 238 239 241 242 244 245 246 247 247 247 246 246 248
274 285 300 311 323 306 221 212 214 219 226 229 232 236 239 240 241 242 243 244 244 244 244 243 241 237 234 231 231 229 227 227 228 231 234 237 238 239 240 240 240 240 240 239 239 238 238 238 238 238 239 240 241 242 244 245 246 247 248 248 247 248 249
269 272 280 287 296 312 308 245 219 214 218 223 227 231 236 239 241 241 241 242 242 243 243 243 242 240 238 234 232 232 232 232 230 229 231 234 236 237 238 239 240 241 242 242 241 241 241 240 241 241 241 242 243 244 244 244 245 245 246 247 247 247 249
270 270 273 278 282 287 302 310 279 234 220 220 222 225 230 237 240 241 242 241 241 242 241 241 242 242 242 240 238 238 238 238 237 234 233 233 234 236 238 239 241 242 243 244 244 244 244 243 243 243 243 244 244 245 245 245 244 244 244 244 244 245 248
267 268 271 273 273 271 277 299 312 284 252 238 227 222 224 230 236 241 243 241 240 241 241 241 242 244 245 245 244 244 243 243 241 238 237 236 236 237 239 240 241 243 245 246 247 246 246 246 245 245 245 246 246 246 247 247 245 244 241 240 240 242 245
260 264 270 270 266 264 271 281 293 298 291 277 252 230 220 219 225 235 241 242 241 240 240 242 242 244 246 246 245 245 245 244 241 237 235 236 236 238 240 241 241 242 244 246 248 249 248 248 248 247 247 247 247 247 249 249 247 245 241 238 237 239 243
258 259 265 268 265 263 266 273 280 288 293 287 282 266 231 213 212 221 230 237 241 240 239 241 241 241 243 244 243 244 245 243 239 234 232 233 234 236 238 240 240 240 241 244 246 248 249 249 250 249 248 247 247 248 250 249 248 247 243 238 236 237 240
260 260 260 264 266 265 264 266 274 281 282 280 289 289 252 220 208 209 217 228 236 239 239 239 239 238 238 239 242 244 245 243 238 233 233 234 234 236 237 237 238 239 240 242 244 246 248 249 249 248 247 247 247 248 249 249 248 247 245 240 237 237 239
261 261 261 261 265 267 264 262 266 276 280 277 280 283 258 228 209 206 213 221 230 236 238 237 236 237 236 237 240 242 241 240 237 237 238 239 239 239 239 238 238 239 239 240 242 245 247 248 249 248 247 246 245 245 247 248 248 248 247 244 240 239 239
265 264 263 261 260 263 265 262 263 273 280 277 274 275 265 238 215 214 219 221 225 230 236 237 236 238 238 238 239 238 235 234 236 239 241 242 243 242 242 241 240 239 239 239 241 244 246 247 249 249 248 247 245 244 244 245 247 248 248 246 244 242 241
267 265 265 264 260 258 261 261 261 267 275 275 272 273 272 258 240 234 233 229 227 228 232 236 238 239 240 241 240 237 234 233 236 239 241 241 243 243 243 242 241 240 239 239 240 243 245 247 249 249 250 249 247 245 243 243 244 245 246 247 246 244 244
267 266 265 265 263 260 259 260 258 259 267 270 268 270 271 265 256 250 241 234 233 231 232 236 239 240 242 242 241 238 235 234 236 240 241 242 244 245 244 243 243 241 240 240 241 242 244 246 248 249 250 250 248 246 244 243 243 243 244 245 246 246 246
265 267 266 265 264 261 258 257 254 253 259 264 265 265 267 264 258 253 244 236 233 234 235 237 239 241 243 243 243 241 239 238 240 243 244 244 246 248 248 248 249 249 247 244 242 242 244 245 247 248 249 249 249 247 246 245 244 244 243 243 244 246 247
259 262 265 265 264 263 259 256 254 251 254 259 262 262 262 261 259 256 251 244 238 236 236 238 240 242 243 243 244 244 241 241 243 245 245 247 249 251 252 254 257 258 254 247 243 242 243 244 245 247 247 248 248 248 248 247 246 245 245 245 244 244 246
260 256 258 261 262 262 261 259 257 254 254 256 258 258 258 259 260 259 255 250 246 242 239 238 240 243 243 243 244 243 242 243 244 245 246 248 250 251 253 255 258 259 256 250 244 242 242 244 245 246 247 247 248 249 249 249 248 247 247 246 245 245 244
263 257 253 255 257 259 261 261 260 257 256 254 254 255 257 259 259 259 257 254 250 245 243 242 242 243 244 244 243 242 242 244 244 243 244 246 249 250 251 254 256 257 255 252 247 244 242 243 245 246 247 248 249 250 251 252 251 249 249 248 248 248 247
263 260 254 251 252 255 257 259 260 259 257 255 251 251 255 259 260 258 257 257 253 247 243 245 246 245 245 245 244 241 241 242 242 242 243 245 247 249 250 251 254 254 253 252 249 247 246 245 245 246 247 248 249 250 252 253 253 252 252 251 251 251 251
261 261 257 250 248 250 253 255 257 257 257 256 252 248 249 254 258 259 258 258 255 249 244 246 250 249 247 245 244 242 242 243 244 244 244 246 247 249 250 251 253 254 253 252 250 250 249 247 244 244 246 247 248 250 252 253 255 255 254 254 253 252 251
259 258 258 252 247 247 249 251 253 254 254 254 253 250 247 247 251 256 259 259 255 250 247 249 253 254 250 247 244 244 244 246 246 247 248 249 250 252 253 254 255 255 254 253 251 251 250 247 244 244 246 248 249 250 252 254 255 255 254 254 253 251 249
258 257 257 254 248 245 246 248 249 249 250 250 250 250 249 246 246 249 254 257 254 250 250 254 257 258 257 252 247 245 245 246 246 248 250 252 254 256 257 258 258 257 255 254 252 250 248 246 244 245 247 248 249 252 254 255 255 255 254 253 250 248 246
256 256 255 254 249 245 244 245 246 245 245 246 248 248 248 247 246 246 249 253 253 250 251 256 258 259 261 259 252 247 245 245 246 247 250 253 255 257 259 260 260 259 257 255 252 250 248 246 247 248 248 248 249 252 255 256 257 256 254 250 246 244 243
Height
3151 3152 3153 3155 3156 3158 3159 3160 3161 3164 3166 3168 3170 3173 3175 3177 3179 3182 3184 3186 3189 3191 3193 3194 3196 3198 3200 3203 3205 3206 3207 3209 3210 3212 3214 3216 3218 3220 3222 3223 3225 3226 3228 3229 3230 3231 3232 3233 3234 3235 3235 3236 3237 3238 3239 3240 3240 3241 3241 3242 3242 3243 3243
3148 3149 3151 3152 3154 3155 3157 3158 3159 3162 3164 3166 3169 3171 3173 3175 3177 3179 3182 3185 3187 3190 3191 3193 3195 3197 3199 3202 3203 3205 3206 3207 3209 3211 3212 3215 3217 3219 3220 3222 3224 3225 3227 3228 3229 3230 3231 3232 3233 3234 3235 3236 3237 3238 3239 3240 3240 3241 3241 3242 3242 3243 3243
3144 3146 3148 3150 3151 3153 3155 3156 3157 3159 3162 3164 3167 3169 3171 3173 3176 3178 3181 3183 3186 3188 3190 3191 3193 3195 3198 3200 3202 3203 3205 3206 3207 3209 3211 3213 3215 3217 3219 3221 3222 3224 3226 3227 3228 3229 3230 3231 3232 3233 3234 3235 3236 3237 3238 3239 3240 3240 3241 3241 3242 3243 3243
3141 3143 3146 3148 3150 3152 3153 3155 3156 3158 3160 3162 3165 3167 3170 3172 3175 3178 3180 3182 3184 3186 3188 3190 3192 3194 3196 3198 3200 3202 3203 3205 3206 3208 3210 3212 3214 3216 3218 3219 3221 3222 3224 3225 3227 3228 3229 3230 3231 3232 3233 3234 3235 3236 3237 3238 3239 3240 3241 3241 3242 3242 3243
3138 3140 3143 3146 3148 3150 3151 3153 3155 3156 3158 3161 3163 3166 3168 3171 3173 3176 3178 3180 3182 3184 3187 3189 3191 3192 3194 3196 3198 3200 3202 3204 3205 3207 3208 3210 3212 3213 3215 3217 3219 3221 3223 3224 3225 3226 3228 3229 3230 3231 3232 3233 3234 3235 3236 3237 3238 3239 3240 3240 3241 3242 3242
3136 3138 3140 3143 3146 3147 3149 3151 3153 3155 3157 3159 3162 3164 3167 3169 3171 3173 3176 3178 3180 3182 3185 3187 3189 3191 3192 3194 3196 3199 3200 3202 3204 3205 3207 3208 3210 3211 3213 3216 3218 3219 3221 3223 3224 3225 3226 3228 3229 3230 3231 3232 3233 3234 3235 3236 3237 3238 3239 3240 3241 3241 3242
3135 3136 3137 3139 3143 3146 3147 3150 3152 3154 3156 3158 3160 3162 3165 3167 3169 3171 3174 3176 3178 3180 3182 3184 3186 3188 3190 3193 3195 3197 3199 3200 3202 3204 3205 3207 3208 3209 3212 3214 3216 3218 3220 3221 3222 3224 3225 3226 3228 3229 3230 3231 3232 3233 3234 3235 3236 3237 3238 3239 3240 3240 3241
3133 3134 3135 3137 3141 3144 3146 3148 3151 3153 3155 3156 3158 3160 3162 3164 3167 3169 3171 3173 3176 3178 3180 3182 3184 3186 3189 3191 3193 3195 3197 3199 3201 3202 3204 3205 3206 3208 3210 3212 3214 3216 3218 3219 3221 3222 3223 3225 3226 3227 3228 3230 3231 3232 3233 3234 3235 3236 3237 3238 3239 3240 3240
3130 3131 3132 3133 3137 3140 3143 3146 3149 3151 3153 3155 3156 3158 3160 3162 3165 3167 3169 3171 3173 3175 3177 3180 3183 3185 3187 3189 3191 3193 3195 3197 3199 3200 3202 3203 3204 3206 3207 3210 3212 3214 3216 3217 3219 3220 3222 3223 3224 3226 3227 3228 3229 3230 3231 3232 3234 3235 3236 3237 3238 3239 3239
3126 3128 3129 3130 3132 3136 3139 3143 3146 3149 3151 3153 3155 3156 3158 3160 3163 3165 3167 3169 3171 3173 3176 3178 3181 3183 3185 3187 3189 3191 3193 3195 3197 3198 3200 3201 3202 3204 3206 3207 3209 3211 3213 3216 3217 3219 3220 3221 3223 3224 3225 3226 3227 3229 3230 3231 3232 3233 3234 3236 3237 3238 3238
3123 3125 3127 3129 3130 3132 3135 3138 3142 3145 3148 3151 3153 3155 3157 3159 3161 3163 3165 3167 3169 3171 3174 3176 3179 3180 3182 3184 3187 3189 3191 3193 3194 3196 3197 3199 3201 3202 3204 3206 3207 3208 3211 3213 3215 3217 3218 3219 3221 3222 3223 3224 3226 3227 3228 3229 3230 3231 3232 3234 3235 3236 3237
3122 3123 3125 3127 3128 3130 3133 3135 3138 3140 3143 3147 3150 3153 3155 3157 3160 3162 3163 3165 3167 3170 3172 3175 3177 3178 3180 3182 3184 3186 3188 3190 3192 3193 3195 3197 3199 3201 3203 3204 3205 3206 3208 3210 3212 3214 3216 3217 3219 3220 3221 3223 3224 3225 3226 3228 3229 3230 3231 3232 3233 3235 3236
3122 3122 3123 3125 3126 3128 3131 3133 3135 3137 3140 3143 3146 3149 3152 3155 3157 3160 3162 3164 3166 3168 3170 3173 3175 3176 3178 3180 3182 3184 3186 3188 3189 3191 3193 3194 3196 3198 3200 3202 3203 3204 3205 3207 3209 3210 3213 3214 3216 3218 3219 3221 3222 3223 3224 3226 3227 3228 3229 3230 3231 3232 3234
3124 3123 3123 3124 3125 3127 3129 3132 3134 3135 3138 3140 3143 3145 3148 3151 3153 3156 3159 3162 3164 3166 3168 3170 3172 3174 3176 3178 3180 3182 3184 3186 3188 3189 3191 3193 3194 3196 3198 3199 3201 3202 3204 3205 3206 3207 3209 3211 3214 3215 3217 3218 3219 3221 3222 3223 3224 3225 3227 3228 3229 3230 3231
3124 3123 3123 3124 3124 3126 3127 3130 3132 3134 3136 3138 3141 3143 3145 3147 3149 3152 3155 3158 3160 3162 3164 3167 3169 3171 3173 3176 3177 3180 3182 3185 3186 3188 3189 3191 3192 3193 3195 3197 3198 3200 3201 3202 3203 3205 3207 3209 3210 3212 3214 3215 3216 3218 3219 3220 3221 3223 3225 3226 3227 3228 3229
3125 3124 3123 3124 3125 3126 3126 3128 3129 3132 3134 3136 3139 3141 3143 3144 3146 3148 3151 3154 3156 3158 3160 3163 3165 3167 3170 3172 3175 3178 3180 3182 3184 3186 3187 3188 3190 3191 3193 3194 3196 3197 3198 3200 3201 3203 3204 3206 3207 3209 3210 3212 3214 3215 3216 3217 3218 3220 3222 3224 3225 3226 3227
3126 3125 3124 3123 3124 3125 3126 3127 3128 3129 3132 3134 3136 3139 3141 3142 3144 3146 3148 3151 3153 3155 3157 3159 3162 3164 3166 3169 3172 3175 3178 3179 3181 3183 3184 3186 3188 3189 3191 3192 3194 3195 3196 3197 3199 3200 3202 3203 3204 3206 3207 3209 3211 3212 3213 3214 3216 3218 3219 3221 3223 3224 3224
3126 3126 3124 3123 3124 3124 3125 3126 3126 3128 3130 3132 3134 3136 3138 3140 3142 3144 3147 3149 3151 3153 3154 3156 3159 3161 3163 3166 3169 3172 3174 3176 3178 3180 3181 3183 3185 3187 3188 3190 3191 3192 3193 3195 3196 3198 3199 3200 3201 3203 3205 3206 3207 3209 3210 3212 3213 3215 3216 3218 3220 3221 3222
3125 3125 3124 3124 3124 3124 3124 3125 3125 3126 3127 3129 3131 3133 3135 3137 3139 3142 3144 3146 3148 3150 3152 3154 3156 3158 3161 3163 3165 3167 3170 3172 3174 3176 3178 3180 3182 3184 3185 3187 3188 3190 3191 3192 3194 3195 3196 3197 3198 3200 3202 3203 3204 3206 3207 3209 3211 3212 3213 3215 3217 3218 3219
3123 3123 3124 3124 3124 3124 3124 3124 3124 3125 3125 3126 3128 3129 3131 3133 3136 3138 3141 3143 3145 3147 3149 3151 3153 3155 3158 3160 3162 3164 3165 3167 3169 3172 3174 3176 3178 3180 3181 3183 3185 3187 3188 3190 3191 3192 3193 3194 3196 3197 3199 3200 3201 3203 3204 3206 3208 3209 3210 3212 3213 3215 3215
3121 3122 3122 3123 3124 3124 3124 3124 3124 3123 3124 3124 3124 3125 3127 3129 3132 3134 3137 3140 3142 3144 3146 3148 3150 3152 3154 3157 3159 3161 3162 3164 3165 3168 3170 3173 3175 3176 3178 3180 3182 3184 3186 3187 3188 3189 3191 3192 3193 3194 3196 3197 3198 3200 3201 3203 3205 3206 3207 3208 3210 3211 3212
3121 3121 3121 3122 3123 3123 3122 3123 3123 3122 3122 3123 3122 3123 3124 3126 3128 3130 3133 3136 3138 3141 3143 3145 3147 3150 3151 3153 3155 3157 3159 3161 3162 3164 3166 3169 3171 3173 3175 3177 3179 3181 3183 3184 3185 3187 3188 3189 3190 3192 3193 3194 3195 3196 3198 3200 3202 3203 3204 3205 3207 3207 3208
3120 3120 3120 3120 3121 3121 3120 3120 3121 3122 3122 3123 3122 3122 3122 3124 3125 3127 3128 3131 3134 3137 3140 3142 3144 3146 3148 3150 3151 3153 3155 3157 3158 3160 3162 3164 3166 3168 3171 3173 3175 3177 3179 3180 3182 3184 3185 3186 3188 3189 3190 3191 3192 3193 3195 3197 3199 3200 3201 3203 3203 3204 3204
3117 3118 3117 3117 3117 3118 3118 3119 3119 3121 3122 3123 3123 3121 3121 3121 3122 3123 3125 3127 3130 3133 3136 3139 3141 3143 3144 3146 3148 3150 3152 3153 3154 3156 3157 3159 3161 3164 3167 3169 3171 3173 3175 3176 3178 3180 3181 3183 3184 3185 3187 3188 3189 3190 3192 3193 3196 3197 3198 3200 3200 3201 3201
3115 3115 3114 3114 3114 3115 3116 3117 3117 3118 3120 3121 3122 3121 3120 3119 3119 3121 3123 3125 3127 3130 3133 3135 3137 3139 3141 3143 3145 3148 3149 3150 3151 3152 3153 3155 3157 3160 3162 3165 3167 3169 3171 3172 3174 3176 3177 3179 3180 3182 3183 3184 3186 3187 3188 3190 3192 3194 3195 3197 3197 3197 3198
3112 3112 3112 3112 3112 3113 3114 3114 3114 3115 3116 3118 3120 3121 3120 3119 3118 3119 3121 3123 3125 3127 3129 3132 3133 3135 3138 3140 3142 3144 3146 3147 3149 3150 3151 3153 3155 3157 3159 3160 3162 3164 3166 3168 3170 3172 3173 3175 3176 3178 3180 3181 3182 3183 3185 3186 3189 3190 3192 3193 3194 3194 3194
3108 3109 3109 3110 3110 3111 3112 3112 3112 3112 3113 3115 3117 3119 3120 3119 3117 3116 3118 3120 3122 3124 3125 3127 3129 3132 3134 3137 3139 3141 3143 3144 3146 3147 3149 3151 3152 3154 3155 3157 3159 3160 3162 3164 3166 3168 3169 3171 3173 3174 3176 3177 3179 3180 3181 3183 3185 3187 3188 3190 3190 3191 3191
3103 3104 3105 3107 3108 3109 3109 3110 3111 3111 3112 3113 3115 3116 3118 3118 3116 3116 3116 3117 3119 3120 3121 3123 3125 3128 3130 3132 3135 3138 3139 3141 3142 3144 3146 3147 3149 3150 3152 3154 3156 3157 3159 3161 3162 3164 3166 3167 3169 3170 3172 3173 3175 3176 3177 3179 3181 3183 3184 3186 3187 3187 3187
3098 3099 3100 3102 3104 3105 3106 3107 3109 3111 3111 3111 3112 3113 3113 3114 3115 3116 3115 3115 3115 3116 3118 3119 3121 3123 3126 3128 3131 3134 3136 3137 3138 3140 3142 3144 3145 3147 3148 3150 3152 3154 3156 3158 3159 3161 3162 3164 3165 3167 3168 3170 3171 3172 3173 3175 3177 3179 3180 3182 3183 3184 3184
3094 3094 3095 3096 3098 3100 3102 3103 3106 3109 3109 3109 3109 3109 3109 3109 3111 3113 3113 3113 3113 3113 3114 3116 3117 3119 3122 3124 3127 3129 3132 3133 3134 3135 3137 3139 3141 3143 3144 3146 3148 3150 3152 3154 3156 3157 3159 3160 3162 3163 3164 3166 3167 3169 3170 3171 3173 3174 3176 3178 3179 3180 3180
3090 3089 3090 3091 3092 3094 3096 3098 3101 3104 3106 3106 3105 3104 3105 3105 3106 3108 3109 3109 3109 3110 3111 3112 3114 3116 3118 3120 3123 3125 3127 3129 3130 3131 3133 3134 3136 3138 3140 3142 3144 3146 3148 3150 3152 3154 3155 3157 3158 3159 3161 3162 3163 3165 3166 3167 3169 3170 3172 3173 3175 3176 3177
3085 3085 3085 3086 3087 3088 3089 3092 3095 3098 3100 3102 3101 3100 3100 3101 3101 3102 3104 3105 3106 3107 3108 3109 3111 3112 3114 3117 3119 3121 3123 3125 3127 3128 3129 3130 3132 3133 3136 3138 3140 3142 3144 3146 3148 3150 3152 3153 3154 3155 3157 3158 3159 3161 3162 3163 3165 3166 3167 3169 3170 3172 3173
3079 3080 3081 3081 3082 3082 3083 3085 3088 3091 3094 3097 3097 3096 3096 3096 3097 3098 3099 3101 3102 3103 3104 3106 3107 3109 3111 3113 3115 3117 3119 3120 3122 3124 3125 3126 3128 3129 3131 3133 3135 3137 3139 3141 3143 3146 3148 3149 3150 3151 3152 3154 3155 3157 3158 3159 3160 3162 3163 3165 3166 3168 3169
3073 3075 3076 3076 3077 3077 3077 3079 3081 3084 3087 3090 3092 3093 3093 3093 3093 3094 3095 3097 3098 3099 3100 3102 3104 3105 3107 3109 3110 3112 3114 3116 3117 3119 3120 3122 3124 3125 3127 3129 3131 3133 3135 3137 3139 3142 3143 3145 3146 3147 3148 3150 3152 3152 3153 3154 3155 3157 3159 3160 3162 3163 3164
3067 3069 3071 3072 3072 3072 3072 3073 3075 3077 3080 3083 3086 3088 3090 3090 3090 3090 3091 3093 3095 3096 3096 3098 3100 3101 3103 3105 3106 3108 3109 3110 3112 3114 3116 3118 3120 3121 3123 3125 3127 3129 3131 3133 3135 3137 3139 3141 3142 3143 3145 3146 3147 3148 3148 3149 3151 3153 3154 3155 3157 3159 3160
3061 3064 3066 3067 3067 3067 3068 3069 3070 3071 3074 3077 3080 3082 3086 3087 3087 3087 3087 3089 3091 3092 3093 3094 3096 3098 3100 3101 3102 3104 3105 3106 3107 3109 3111 3113 3115 3117 3119 3121 3123 3125 3126 3128 3130 3132 3133 3135 3137 3139 3141 3141 3142 3143 3144 3145 3147 3148 3149 3150 3152 3154 3155
3055 3058 3061 3062 3062 3063 3064 3065 3065 3067 3069 3071 3074 3076 3080 3082 3084 3084 3085 3085 3086 3087 3089 3091 3093 3095 3096 3098 3099 3100 3101 3102 3103 3105 3106 3108 3110 3112 3114 3116 3118 3119 3121 3123 3125 3127 3128 3130 3132 3134 3135 3135 3136 3137 3138 3140 3142 3143 3143 3145 3147 3148 3149
3050 3051 3055 3057 3058 3058 3060 3060 3061 3062 3064 3066 3068 3071 3073 3076 3078 3080 3081 3082 3082 3083 3085 3087 3089 3091 3092 3094 3095 3096 3096 3097 3099 3100 3102 3104 3106 3108 3110 3111 3113 3114 3116 3118 3120 3122 3124 3125 3126 3128 3129 3130 3131 3132 3134 3135 3136 3137 3138 3139 3141 3142 3143